• în România
  • Lista ţărilor
  • Pe 7 zile
  • Temperatura apei
  • Hartă satelitară
  • Meteo pe hartă
  • Widget-uri
  • user-avatar
    Intrare

    Meteo pe oră la Shaki

    Astăzi, 18 Noiembrie, Sâmbătă

    Timp Temperatura Precipitaţii Vânt Presiune Umiditate
    00:00 +10°C° 0 mm 2 m/s 742 mmHg 85%
    01:00 +10°C° 0 mm 2 m/s 742 mmHg 83%
    02:00 +10°C° 0 mm 2 m/s 742 mmHg 82%
    03:00 +10°C° 0 mm 2 m/s 742 mmHg 80%
    04:00 +11°C° 0 mm 1 m/s 741 mmHg 77%
    05:00 +11°C° 0 mm 1 m/s 741 mmHg 75%
    06:00 +11°C° 0 mm 1 m/s 741 mmHg 72%
    07:00 +11°C° 0,1 mm 1 m/s 741 mmHg 69%
    08:00 +12°C° 0,1 mm 1 m/s 741 mmHg 66%
    09:00 +13°C° 0,1 mm 1 m/s 741 mmHg 63%
    10:00 +13°C° 0 mm 1 m/s 741 mmHg 62%
    11:00 +14°C° 0 mm 1 m/s 740 mmHg 61%
    12:00 +14°C° 0 mm 1 m/s 740 mmHg 60%
    13:00 +14°C° 0 mm 1 m/s 739 mmHg 59%
    14:00 +14°C° 0 mm 2 m/s 739 mmHg 58%
    15:00 +15°C° 0 mm 2 m/s 739 mmHg 57%
    16:00 +13°C° 0 mm 2 m/s 739 mmHg 60%
    17:00 +12°C° 0 mm 1 m/s 739 mmHg 64%
    18:00 +11°C° 0 mm 1 m/s 739 mmHg 67%
    19:00 +11°C° 0 mm 1 m/s 739 mmHg 66%
    20:00 +11°C° 0 mm 1 m/s 739 mmHg 64%
    21:00 +11°C° 0 mm 1 m/s 739 mmHg 63%
    22:00 +11°C° 0 mm 1 m/s 738 mmHg 62%
    23:00 +10°C° 0 mm 1 m/s 738 mmHg 60%

    Mâine, 19 Noiembrie, Duminică

    Timp Temperatura Precipitaţii Vânt Presiune Umiditate
    00:00 +10°C° 0 mm 1 m/s 738 mmHg 59%
    01:00 +10°C° 0 mm 1 m/s 738 mmHg 58%
    02:00 +9°C° 0 mm 2 m/s 738 mmHg 56%
    03:00 +9°C° 0 mm 2 m/s 738 mmHg 55%
    04:00 +9°C° 0 mm 2 m/s 737 mmHg 54%
    05:00 +9°C° 0 mm 2 m/s 737 mmHg 53%
    06:00 +9°C° 0 mm 2 m/s 737 mmHg 52%
    07:00 +11°C° 0 mm 1 m/s 737 mmHg 48%
    08:00 +13°C° 0 mm 1 m/s 737 mmHg 44%
    09:00 +14°C° 0 mm 1 m/s 737 mmHg 41%
    10:00 +15°C° 0 mm 1 m/s 736 mmHg 37%
    11:00 +17°C° 0 mm 2 m/s 736 mmHg 34%
    12:00 +18°C° 0 mm 2 m/s 735 mmHg 31%
    13:00 +18°C° 0 mm 2 m/s 735 mmHg 31%
    14:00 +18°C° 0 mm 2 m/s 735 mmHg 32%
    15:00 +18°C° 0 mm 2 m/s 734 mmHg 32%
    16:00 +17°C° 0 mm 2 m/s 734 mmHg 33%
    17:00 +15°C° 0 mm 2 m/s 734 mmHg 35%
    18:00 +14°C° 0 mm 2 m/s 734 mmHg 37%
    19:00 +14°C° 0 mm 2 m/s 734 mmHg 38%
    20:00 +14°C° 0 mm 2 m/s 734 mmHg 38%
    21:00 +14°C° 0 mm 2 m/s 734 mmHg 39%
    22:00 +13°C° 0 mm 2 m/s 734 mmHg 40%
    23:00 +13°C° 0 mm 2 m/s 734 mmHg 41%

    Poimâine, 20 Noiembrie, Luni

    Timp Temperatura Precipitaţii Vânt Presiune Umiditate
    00:00 +13°C° 0 mm 2 m/s 733 mmHg 43%
    01:00 +13°C° 0 mm 2 m/s 733 mmHg 44%
    02:00 +13°C° 0 mm 2 m/s 733 mmHg 44%
    03:00 +12°C° 0 mm 3 m/s 733 mmHg 45%
    04:00 +12°C° 0 mm 3 m/s 733 mmHg 46%
    05:00 +12°C° 0 mm 3 m/s 733 mmHg 46%
    06:00 +12°C° 0 mm 3 m/s 733 mmHg 47%
    07:00 +13°C° 0 mm 3 m/s 733 mmHg 43%
    08:00 +14°C° 0 mm 3 m/s 733 mmHg 40%
    09:00 +17°C° 0 mm 3 m/s 733 mmHg 37%
    10:00 +18°C° 0 mm 3 m/s 733 mmHg 34%
    11:00 +19°C° 0 mm 4 m/s 733 mmHg 31%
    12:00 +20°C° 0 mm 4 m/s 732 mmHg 27%
    13:00 +20°C° 0 mm 4 m/s 732 mmHg 28%
    14:00 +20°C° 0 mm 4 m/s 732 mmHg 28%
    15:00 +20°C° 0 mm 3 m/s 732 mmHg 28%
    16:00 +18°C° 0 mm 3 m/s 732 mmHg 31%
    17:00 +17°C° 0 mm 3 m/s 732 mmHg 34%
    18:00 +14°C° 0 mm 3 m/s 732 mmHg 37%
    19:00 +14°C° 0 mm 3 m/s 732 mmHg 38%
    20:00 +14°C° 0 mm 3 m/s 732 mmHg 40%
    21:00 +14°C° 0 mm 2 m/s 732 mmHg 42%
    22:00 +14°C° 0 mm 2 m/s 731 mmHg 42%
    23:00 +14°C° 0 mm 2 m/s 731 mmHg 42%

    21 Noiembrie, Marţi

    Timp Temperatura Precipitaţii Vânt Presiune Umiditate
    00:00 +14°C° 0 mm 2 m/s 731 mmHg 43%
    01:00 +13°C° 0 mm 2 m/s 731 mmHg 42%
    02:00 +13°C° 0 mm 2 m/s 730 mmHg 42%
    03:00 +13°C° 0 mm 2 m/s 730 mmHg 42%
    04:00 +13°C° 0 mm 2 m/s 730 mmHg 43%
    05:00 +13°C° 0 mm 2 m/s 730 mmHg 43%
    06:00 +13°C° 0 mm 2 m/s 729 mmHg 44%
    07:00 +14°C° 0 mm 2 m/s 729 mmHg 41%
    08:00 +15°C° 0 mm 2 m/s 729 mmHg 39%
    09:00 +16°C° 0 mm 2 m/s 729 mmHg 37%
    10:00 +17°C° 0 mm 2 m/s 729 mmHg 34%
    11:00 +18°C° 0 mm 3 m/s 728 mmHg 32%
    12:00 +19°C° 0 mm 3 m/s 728 mmHg 30%
    13:00 +19°C° 0 mm 2 m/s 727 mmHg 31%
    14:00 +18°C° 0 mm 2 m/s 727 mmHg 33%
    15:00 +18°C° 0 mm 2 m/s 726 mmHg 35%
    16:00 +17°C° 0 mm 2 m/s 727 mmHg 36%
    17:00 +16°C° 0 mm 2 m/s 727 mmHg 38%
    18:00 +15°C° 0 mm 2 m/s 727 mmHg 40%
    19:00 +15°C° 0 mm 2 m/s 727 mmHg 40%
    20:00 +15°C° 0 mm 2 m/s 727 mmHg 40%
    21:00 +14°C° 0 mm 2 m/s 728 mmHg 40%
    22:00 +14°C° 0 mm 2 m/s 728 mmHg 40%
    23:00 +14°C° 0 mm 2 m/s 728 mmHg 40%

    22 Noiembrie, Miercuri

    Timp Temperatura Precipitaţii Vânt Presiune Umiditate
    00:00 +14°C° 0 mm 2 m/s 728 mmHg 40%
    01:00 +14°C° 0 mm 2 m/s 728 mmHg 41%
    02:00 +13°C° 0 mm 2 m/s 728 mmHg 42%
    03:00 +13°C° 0 mm 2 m/s 728 mmHg 42%
    04:00 +13°C° 0 mm 1 m/s 728 mmHg 44%
    05:00 +13°C° 0 mm 1 m/s 728 mmHg 45%
    06:00 +12°C° 0 mm 1 m/s 729 mmHg 46%
    07:00 +13°C° 0 mm 1 m/s 729 mmHg 45%
    08:00 +14°C° 0 mm 1 m/s 729 mmHg 43%
    09:00 +15°C° 0 mm 1 m/s 729 mmHg 42%
    10:00 +15°C° 0 mm 2 m/s 729 mmHg 42%
    11:00 +16°C° 0 mm 2 m/s 729 mmHg 41%
    12:00 +16°C° 0 mm 2 m/s 729 mmHg 41%
    13:00 +14°C° 0 mm 3 m/s 729 mmHg 44%
    14:00 +14°C° 0 mm 4 m/s 730 mmHg 47%
    15:00 +13°C° 0 mm 4 m/s 730 mmHg 49%
    16:00 +12°C° 0,3 mm 4 m/s 730 mmHg 56%
    17:00 +11°C° 0,3 mm 4 m/s 731 mmHg 62%
    18:00 +10°C° 0,3 mm 4 m/s 731 mmHg 69%
    19:00 +10°C° 0,7 mm 4 m/s 731 mmHg 70%
    20:00 +9°C° 0,7 mm 3 m/s 732 mmHg 70%
    21:00 +9°C° 0,7 mm 3 m/s 732 mmHg 71%
    22:00 +9°C° 0,1 mm 3 m/s 732 mmHg 70%
    23:00 +8°C° 0,1 mm 4 m/s 732 mmHg 68%

    23 Noiembrie, Joi

    Timp Temperatura Precipitaţii Vânt Presiune Umiditate
    00:00 +7°C° 0,1 mm 4 m/s 732 mmHg 67%
    01:00 +7°C° 0 mm 4 m/s 732 mmHg 65%
    02:00 +7°C° 0 mm 4 m/s 732 mmHg 64%
    03:00 +6°C° 0 mm 4 m/s 732 mmHg 62%
    04:00 +6°C° 0 mm 4 m/s 733 mmHg 58%
    05:00 +5°C° 0 mm 4 m/s 733 mmHg 54%
    06:00 +5°C° 0 mm 4 m/s 733 mmHg 50%
    07:00 +6°C° 0 mm 4 m/s 733 mmHg 46%
    08:00 +7°C° 0 mm 5 m/s 734 mmHg 43%
    09:00 +8°C° 0 mm 5 m/s 734 mmHg 40%
    10:00 +8°C° 0 mm 5 m/s 734 mmHg 38%
    11:00 +9°C° 0 mm 6 m/s 734 mmHg 37%
    12:00 +10°C° 0 mm 6 m/s 735 mmHg 36%
    13:00 +9°C° 0 mm 6 m/s 735 mmHg 35%
    14:00 +9°C° 0 mm 6 m/s 735 mmHg 34%
    15:00 +9°C° 0 mm 6 m/s 735 mmHg 33%
    16:00 +7°C° 0 mm 5 m/s 736 mmHg 35%
    17:00 +6°C° 0 mm 4 m/s 737 mmHg 36%
    18:00 +5°C° 0 mm 3 m/s 737 mmHg 38%
    19:00 +5°C° 0 mm 3 m/s 738 mmHg 42%
    20:00 +5°C° 0 mm 3 m/s 738 mmHg 46%
    21:00 +4°C° 0 mm 3 m/s 739 mmHg 50%
    22:00 +5°C° 0,1 mm 2 m/s 739 mmHg 53%
    23:00 +5°C° 0,1 mm 2 m/s 740 mmHg 56%
    Arată mai mult